This is the latest recevied weather packets stored in our database for station/object WB5LFS-1. If no packets are shown the sender has not sent any weather packets the latest 1 day(s).
| Time | Temp. | Humidity | Pressure | Rain* | Wind** | Luminosity | Snow |
|---|---|---|---|---|---|---|---|
| 1778060507 | 17.22° C | 76% | 1012.6 hPa | 0 mm | - | - | - |
| 1778059607 | 17.22° C | 75% | 1012.8 hPa | 0 mm | - | - | - |
| 1778058707 | 17.22° C | 75% | 1012.9 hPa | 0 mm | - | - | - |
| 1778057807 | 17.22° C | 75% | 1013.3 hPa | 0 mm | - | - | - |
| 1778056007 | 17.78° C | 73% | 1013.4 hPa | 0 mm | - | - | - |
| 1778054207 | 17.78° C | 74% | 1013.2 hPa | 0 mm | - | - | - |
| 1778053307 | 17.78° C | 74% | 1013.3 hPa | 0 mm | - | - | - |
| 1778052407 | 17.78° C | 73% | 1013.1 hPa | 0 mm | - | - | - |
| 1778051507 | 17.78° C | 73% | 1013.4 hPa | 0 mm | - | - | - |
| 1778049707 | 18.33° C | 74% | 1013.4 hPa | 0 mm | - | - | - |
| 1778047907 | 18.33° C | 73% | 1013.3 hPa | 0 mm | - | - | - |
| 1778046107 | 18.33° C | 74% | 1013.6 hPa | 0 mm | - | - | - |
| 1778045207 | 18.89° C | 73% | 1013.9 hPa | 0 mm | - | - | - |
| 1778044307 | 18.89° C | 73% | 1013.9 hPa | 0 mm | - | - | - |
| 1778043407 | 18.89° C | 73% | 1014.1 hPa | 0 mm | - | - | - |
| 1778037107 | 20.56° C | 67% | 1014 hPa | 0 mm | - | - | - |
| 1778036207 | 21.11° C | 66% | 1013.9 hPa | 0 mm | - | - | - |
| 1778034407 | 21.67° C | 63% | 1014 hPa | 0 mm | - | - | - |
| 1778033508 | 21.67° C | 62% | 1013.8 hPa | 0 mm | - | - | - |
| 1778032608 | 21.67° C | 62% | 1013.6 hPa | 0 mm | - | - | - |
| 1778031708 | 21.67° C | 60% | 1013.4 hPa | 0 mm | - | - | - |
| 1778030808 | 21.67° C | 60% | 1013.3 hPa | 0 mm | - | - | - |
| 1778029908 | 22.22° C | 59% | 1013.2 hPa | 0 mm | - | - | - |
| 1778029008 | 22.22° C | 58% | 1013 hPa | 0 mm | - | - | - |
| 1778028108 | 22.78° C | 56% | 1012.7 hPa | 0 mm | - | - | - |
* Rain latest hour (hover to see other rain measurements)
** Current wind speed in m/s (hover to see current wind gust speed)